Location: Le Rocchette
(44.3500°N, 7.8333°E)
Time: 12:46:36
(UTC+00:00)

METEOR-M - Pass Details

Date: 17 November 2019
Orbit: 815 x 820 km, 98.4° (Epoch: 08 December)

Event Time Altitude Azimuth Distance (km) Brightness Sun altitude
Rises 05:32:26 0° 8° (N) 3,353 7.2 -9.8°
Reaches altitude 10° 05:34:51 10° 3° (N) 2,417 6.4 -9.4°
Maximum altitude 05:39:58 49° 290° (WNW) 1,051 4.3 -8.6°
Drops below altitude 10° 05:45:04 10° 217° (SW) 2,402 6.4 -7.7°
Sets 05:47:28 0° 212° (SSW) 3,331 7.2 -7.3°
